TimeCDT,TemperatureF,Dew PointF,Humidity,Sea Level PressureIn,VisibilityMPH,Wind Direction,Wind SpeedMPH,Gust SpeedMPH,PrecipitationIn,Events,Conditions,WindDirDegrees,DateUTC
12:35 AM,51.1,34.2,52,30.18,10.0,South,9.2,-,N/A,,Clear,180,2011-10-03 05:35:00
12:55 AM,50.2,34.5,55,30.18,10.0,South,8.1,-,N/A,,Clear,190,2011-10-03 05:55:00
1:15 AM,49.6,34.2,55,30.18,10.0,South,6.9,-,N/A,,Clear,190,2011-10-03 06:15:00
1:35 AM,49.5,34.0,55,30.18,10.0,South,6.9,-,N/A,,Clear,190,2011-10-03 06:35:00
1:55 AM,48.7,34.0,57,30.18,10.0,South,5.8,-,N/A,,Clear,190,2011-10-03 06:55:00
2:15 AM,48.6,34.0,57,30.19,10.0,South,4.6,-,N/A,,Clear,180,2011-10-03 07:15:00
2:35 AM,50.0,34.0,54,30.18,10.0,South,5.8,-,N/A,,Clear,180,2011-10-03 07:35:00
2:55 AM,49.8,33.8,54,30.18,10.0,South,6.9,-,N/A,,Clear,190,2011-10-03 07:55:00
3:15 AM,49.1,33.8,56,30.19,10.0,South,5.8,-,N/A,,Clear,180,2011-10-03 08:15:00
3:35 AM,49.3,33.8,55,30.18,10.0,South,5.8,-,N/A,,Clear,190,2011-10-03 08:35:00
3:55 AM,48.6,33.8,57,30.18,10.0,South,6.9,-,N/A,,Clear,190,2011-10-03 08:55:00
4:15 AM,47.3,33.8,59,30.18,10.0,South,5.8,-,N/A,,Clear,190,2011-10-03 09:15:00
4:35 AM,45.5,33.4,63,30.19,10.0,South,4.6,-,N/A,,Clear,190,2011-10-03 09:35:00
4:55 AM,46.6,33.1,59,30.19,10.0,South,6.9,-,N/A,,Clear,180,2011-10-03 09:55:00
5:15 AM,47.1,33.1,58,30.19,10.0,SSE,4.6,-,N/A,,Clear,160,2011-10-03 10:15:00
5:35 AM,46.0,33.4,61,30.19,10.0,South,5.8,-,N/A,,Clear,170,2011-10-03 10:35:00
5:55 AM,46.0,33.1,61,30.19,10.0,South,5.8,-,N/A,,Clear,170,2011-10-03 10:55:00
6:15 AM,45.9,32.9,61,30.19,10.0,South,6.9,-,N/A,,Clear,170,2011-10-03 11:15:00
6:35 AM,45.1,32.9,62,30.19,10.0,SSE,6.9,-,N/A,,Clear,160,2011-10-03 11:35:00
6:55 AM,45.7,32.9,61,30.20,10.0,South,6.9,-,N/A,,Clear,170,2011-10-03 11:55:00
7:15 AM,46.8,33.1,59,30.20,10.0,SE,4.6,-,N/A,,Clear,140,2011-10-03 12:15:00
7:35 AM,45.5,33.1,62,30.20,10.0,SE,5.8,-,N/A,,Clear,140,2011-10-03 12:35:00
7:55 AM,44.4,33.1,64,30.20,10.0,South,5.8,-,N/A,,Clear,170,2011-10-03 12:55:00
8:15 AM,48.7,33.3,55,30.20,10.0,South,5.8,-,N/A,,Clear,170,2011-10-03 13:15:00
8:35 AM,52.0,33.1,49,30.21,10.0,SSE,3.5,-,N/A,,Clear,160,2011-10-03 13:35:00
8:55 AM,53.1,33.8,48,30.21,10.0,SSE,4.6,-,N/A,,Clear,160,2011-10-03 13:55:00
9:15 AM,55.0,33.1,43,30.22,10.0,South,9.2,-,N/A,,Clear,180,2011-10-03 14:15:00
9:35 AM,56.8,33.3,41,30.22,10.0,South,6.9,-,N/A,,Clear,170,2011-10-03 14:35:00
9:55 AM,59.2,33.8,38,30.22,10.0,SSE,6.9,-,N/A,,Clear,160,2011-10-03 14:55:00
10:15 AM,61.9,33.8,35,30.22,10.0,South,8.1,-,N/A,,Clear,180,2011-10-03 15:15:00
10:35 AM,64.8,33.3,31,30.22,10.0,South,8.1,-,N/A,,Clear,190,2011-10-03 15:35:00
10:55 AM,68.9,32.4,26,30.21,10.0,South,12.7,-,N/A,,Clear,180,2011-10-03 15:55:00
11:15 AM,72.0,31.5,22,30.22,10.0,South,12.7,16.1,N/A,,Clear,170,2011-10-03 16:15:00
11:55 AM,75.0,28.6,18,30.21,10.0,South,12.7,18.4,N/A,,Clear,170,2011-10-03 16:55:00
12:15 PM,75.9,26.4,16,30.21,10.0,South,15.0,-,N/A,,Clear,170,2011-10-03 17:15:00
12:35 PM,76.8,24.6,14,30.21,10.0,SSE,11.5,17.3,N/A,,Clear,160,2011-10-03 17:35:00
1:15 PM,78.3,22.6,13,30.20,10.0,SSE,11.5,17.3,N/A,,Clear,160,2011-10-03 18:15:00
1:35 PM,78.4,21.6,12,30.19,10.0,South,12.7,16.1,N/A,,Clear,170,2011-10-03 18:35:00
1:55 PM,79.2,20.8,11,30.18,10.0,SSE,13.8,-,N/A,,Clear,160,2011-10-03 18:55:00
2:15 PM,79.9,21.0,11,30.17,10.0,South,13.8,17.3,N/A,,Clear,170,2011-10-03 19:15:00
2:35 PM,80.2,20.3,11,30.16,10.0,South,16.1,23.0,N/A,,Clear,180,2011-10-03 19:35:00
2:55 PM,80.1,19.9,11,30.16,10.0,SSE,10.4,23.0,N/A,,Clear,150,2011-10-03 19:55:00
3:15 PM,80.8,18.7,10,30.14,10.0,SSE,12.7,17.3,N/A,,Clear,160,2011-10-03 20:15:00
3:35 PM,81.0,19.2,10,30.14,10.0,South,11.5,-,N/A,,Clear,170,2011-10-03 20:35:00
3:55 PM,81.5,19.2,10,30.14,10.0,South,15.0,18.4,N/A,,Clear,170,2011-10-03 20:55:00
4:15 PM,81.3,19.2,10,30.14,10.0,South,12.7,16.1,N/A,,Clear,170,2011-10-03 21:15:00
4:55 PM,81.0,20.8,11,30.14,10.0,SSE,12.7,16.1,N/A,,Clear,150,2011-10-03 21:55:00
5:15 PM,80.6,22.6,12,30.14,10.0,SSE,10.4,18.4,N/A,,Clear,160,2011-10-03 22:15:00
5:35 PM,79.9,23.7,13,30.13,10.0,SSE,11.5,17.3,N/A,,Clear,160,2011-10-03 22:35:00
5:55 PM,78.8,24.8,14,30.14,10.0,SSE,10.4,-,N/A,,Clear,150,2011-10-03 22:55:00
6:15 PM,77.4,25.7,15,30.14,10.0,SSE,8.1,-,N/A,,Clear,150,2011-10-03 23:15:00
6:35 PM,75.4,27.1,17,30.14,10.0,SSE,5.8,-,N/A,,Clear,150,2011-10-03 23:35:00
6:55 PM,72.5,29.1,20,30.14,10.0,SSE,5.8,-,N/A,,Clear,150,2011-10-03 23:55:00
7:15 PM,68.9,30.4,24,30.14,10.0,SSE,6.9,-,N/A,,Clear,150,2011-10-04 00:15:00
7:35 PM,65.8,31.3,28,30.15,10.0,SE,5.8,-,N/A,,Clear,140,2011-10-04 00:35:00
7:55 PM,64.0,32.0,30,30.16,10.0,SE,6.9,-,N/A,,Clear,140,2011-10-04 00:55:00
8:15 PM,63.0,32.4,32,30.16,10.0,SE,6.9,-,N/A,,Clear,140,2011-10-04 01:15:00
8:35 PM,61.9,32.5,33,30.16,10.0,SE,6.9,-,N/A,,Clear,140,2011-10-04 01:35:00
8:55 PM,61.2,32.7,34,30.16,10.0,SE,8.1,-,N/A,,Clear,140,2011-10-04 01:55:00
9:15 PM,60.6,32.9,35,30.16,10.0,SSE,6.9,-,N/A,,Clear,150,2011-10-04 02:15:00
9:35 PM,59.2,33.1,37,30.17,10.0,SE,5.8,-,N/A,,Clear,140,2011-10-04 02:35:00
9:55 PM,57.6,33.6,41,30.17,10.0,SE,6.9,-,N/A,,Clear,140,2011-10-04 02:55:00
10:15 PM,57.0,34.0,42,30.17,10.0,SE,6.9,-,N/A,,Clear,140,2011-10-04 03:15:00
10:35 PM,57.0,34.2,42,30.18,10.0,SE,5.8,-,N/A,,Clear,140,2011-10-04 03:35:00
11:15 PM,56.3,34.2,43,30.17,10.0,SE,8.1,-,N/A,,Clear,140,2011-10-04 04:15:00
11:35 PM,57.9,33.6,40,30.18,10.0,SSE,8.1,-,N/A,,Clear,150,2011-10-04 04:35:00
11:55 PM,59.5,32.9,37,30.17,10.0,SSE,9.2,-,N/A,,Clear,150,2011-10-04 04:55:00